Temperature
17 17 17 17 16 16 16 16 16 16 16 16 16 17 16 16 16 16 16 16 16 16 16 16 16 16 16 16 16 16 16 15 15 15 15 15 14 14
17 17 17 16 16 16 16 16 16 16 15 16 16 16 16 16 16 16 16 16 16 16 16 16 16 16 16 16 16 16 15 15 15 15 15 14 14 14
16 16 16 16 16 16 16 16 16 15 15 16 16 16 16 16 16 16 15 15 15 15 15 15 15 15 15 16 16 15 15 15 15 15 14 14 14 14
16 16 16 16 16 16 16 16 16 15 15 15 16 16 16 16 15 15 15 15 15 15 15 15 15 15 15 15 15 15 15 15 15 14 14 14 14 14
16 16 16 16 16 16 16 15 15 15 15 15 15 15 15 15 15 15 15 15 15 15 15 15 15 15 15 15 15 15 15 15 14 14 14 14 14 14
16 16 15 15 15 15 15 15 15 15 15 15 15 15 15 15 15 15 15 14 14 14 14 14 14 14 14 14 14 14 14 14 14 14 14 14 14 14
15 15 15 15 15 15 15 15 15 15 14 14 14 14 14 14 14 14 14 14 14 14 14 14 14 14 14 14 14 14 14 14 14 14 14 14 13 13
15 15 15 15 15 15 15 14 14 14 14 14 14 14 14 14 14 14 14 14 14 14 14 14 14 14 14 14 14 14 14 14 13 13 13 13 13 13
15 15 15 15 15 14 14 14 14 14 14 14 14 14 14 14 13 13 13 13 13 13 13 13 14 13 13 13 13 13 13 13 13 13 13 13 13 13
15 15 14 14 14 14 14 14 14 14 14 14 13 13 13 13 13 13 13 13 13 13 13 13 13 13 13 13 13 13 13 13 13 12 12 12 12 12
14 14 14 14 14 14 14 14 14 13 13 13 13 13 13 13 13 13 13 13 12 13 13 12 12 12 13 13 13 13 12 12 12 12 12 12 12 12
14 14 14 14 13 13 13 13 13 13 13 13 13 13 13 12 12 12 12 12 12 12 12 12 12 12 12 12 12 12 12 12 12 11 11 11 11 11
13 13 13 13 13 13 13 13 13 13 13 12 12 12 12 12 12 12 12 12 12 12 12 12 12 11 11 11 12 12 11 11 11 11 11 11 11 11
13 13 13 12 12 12 12 12 12 12 12 12 12 12 12 12 12 12 12 12 11 11 11 11 11 11 11 11 11 11 11 11 11 11 11 11 11 10
12 12 12 12 12 12 12 12 12 12 12 12 11 11 11 11 11 11 11 11 11 11 11 11 11 11 11 10 10 11 10 10 11 10 10 10 10 10
12 12 12 12 12 12 11 11 11 11 11 11 11 11 11 11 11 11 11 11 11 11 11 10 10 10 10 10 10 10 10 10 10 10 10 10 10 10
12 12 12 11 11 11 11 11 11 11 11 11 11 10 10 10 10 10 10 10 10 10 10 10 10 10 10 10 10 10 10 10 10 10 10 10 10 10
11 11 11 11 11 10 10 10 10 10 10 10 10 10 10 10 10 10 10 10 9 9 9 10 10 10 10 10 10 10 10 10 10 10 9 9 9 9
11 10 10 10 10 10 10 10 10 10 9 9 10 9 9 9 9 9 9 9 9 9 9 9 9 9 8 8 9 9 9 9 9 9 9 9 9 9
10 10 10 10 10 10 10 10 9 9 9 9 9 9 9 9 9 9 9 9 9 9 9 9 8 8 8 8 8 9 9 9 9 9 9 9 9 9
10 10 9 9 9 9 9 9 9 9 9 9 9 9 9 8 8 8 8 8 8 8 8 8 8 8 8 8 8 8 9 9 9 9 9 8 8 8
9 9 9 9 9 9 9 9 9 8 8 8 8 8 8 8 8 8 8 8 8 8 8 8 8 8 8 8 8 8 8 8 8 9 8 8 8 8
9 9 9 9 9 8 8 8 8 8 8 8 8 7 7 7 7 7 7 7 7 7 7 7 7 8 8 8 7 7 8 8 8 8 8 8 8 8
Wind_Speed
4 4 4 4 4 4 4 4 3 3 3 3 2 2 3 4 4 4 4 5 6 6 7 8 8 8 9 9 9 10 12 12 13 12 12 13 12 11
3 3 4 4 3 3 4 4 4 4 4 3 3 3 3 3 4 4 4 5 6 6 7 7 8 8 8 9 9 10 11 11 12 12 12 12 12 12
3 3 4 3 3 3 3 4 4 4 5 4 2 2 2 3 2 3 3 4 4 5 6 7 8 8 8 8 9 9 10 11 12 12 12 12 12 12
3 3 4 3 3 3 3 4 4 5 5 5 3 2 3 3 2 2 2 3 3 5 6 7 7 8 8 8 8 9 9 10 11 11 11 11 11 11
4 4 4 3 4 3 3 4 4 4 4 4 3 2 1 1 1 2 2 2 3 4 4 5 6 7 7 8 8 9 9 10 11 11 11 11 10 11
4 4 4 5 5 4 4 4 4 3 3 3 3 2 1 1 1 1 2 2 3 2 3 3 4 5 6 7 7 7 8 9 10 10 10 10 10 9
4 4 5 5 5 4 3 4 4 3 2 2 2 2 1 1 2 2 3 3 3 2 2 3 3 3 3 4 5 5 6 7 8 9 9 9 9 8
4 4 4 4 4 4 4 4 5 4 4 3 3 3 3 3 3 2 2 2 3 1 2 3 2 2 3 3 4 5 6 7 7 7 8 8 9 9
4 4 4 3 3 3 3 2 3 4 6 5 4 4 4 4 3 3 3 3 4 2 2 3 2 2 2 3 3 3 4 5 6 7 7 8 9 9
4 4 4 4 3 3 3 2 3 3 4 4 4 5 5 4 4 4 4 3 2 1 2 2 2 2 2 2 2 3 4 4 5 6 6 7 8 8
3 3 4 4 4 3 3 3 3 3 2 3 3 3 3 3 3 2 2 2 2 2 2 2 1 2 2 2 2 2 3 4 5 5 5 5 6 7
2 2 3 3 2 3 3 4 4 4 2 1 1 2 2 2 2 4 4 4 2 2 3 2 1 1 1 1 1 1 1 3 4 5 5 5 5 5
1 2 2 1 2 2 3 4 5 4 2 2 1 2 2 1 2 2 3 4 4 3 3 3 2 2 2 2 2 2 2 2 2 4 5 6 7 6
2 2 2 2 2 2 2 2 3 3 1 1 1 2 2 2 2 2 3 4 5 5 4 4 3 3 3 2 2 2 2 2 3 3 3 4 6 7
1 1 1 2 1 1 0 1 1 1 1 1 2 2 2 3 2 1 1 2 2 2 2 3 3 3 3 3 3 2 2 2 3 3 3 4 4 4
0 2 3 3 2 2 2 1 0 1 2 2 2 2 1 1 1 1 1 1 1 2 2 2 3 4 4 4 3 3 3 2 3 3 3 4 4 5
2 2 2 2 2 1 1 1 0 0 0 1 1 1 1 1 2 2 1 1 2 3 2 1 2 2 3 4 4 4 4 3 3 3 3 4 4 5
3 2 1 1 1 1 1 1 1 1 1 1 1 2 2 2 2 2 1 2 3 3 3 2 1 1 1 2 4 5 4 3 3 3 3 4 5 5
3 1 0 1 1 2 2 1 1 2 2 1 1 2 2 2 2 2 2 2 3 3 3 2 2 2 3 4 3 4 4 4 3 3 4 4 5 5
1 1 1 1 2 2 2 2 2 2 1 1 1 1 1 1 2 3 3 3 3 3 3 3 3 3 5 5 4 4 6 5 4 4 4 4 4 4
1 1 2 2 2 2 2 2 2 2 2 2 1 1 1 2 2 3 3 3 3 3 4 4 4 4 3 2 3 4 4 5 6 5 4 3 3 3
2 2 2 2 2 3 2 2 2 2 2 2 2 1 2 2 2 3 3 3 3 3 4 4 3 2 2 3 5 5 4 4 4 4 6 5 4 4
2 2 2 2 2 2 2 2 2 2 2 2 2 2 2 2 2 2 3 3 3 4 4 3 3 3 3 3 4 4 5 4 3 3 3 4 6 7
Wind_Direction
223 217 220 221 212 214 209 203 208 251 267 258 255 264 261 245 245 241 251 257 251 249 250 252 250 248 245 243 242 240 235 230 229 230 232 229 227 229
224 219 226 227 215 212 211 212 212 219 250 251 239 263 268 260 248 238 246 260 259 257 254 253 252 249 246 244 241 239 234 230 227 228 226 227 228 228
234 225 232 223 219 218 212 212 214 212 240 261 245 256 244 258 267 247 251 251 261 261 261 259 256 251 250 248 243 239 233 229 227 224 222 225 226 226
240 232 241 231 227 227 218 221 222 217 225 255 260 245 247 257 253 244 259 251 254 261 261 262 259 254 251 248 245 240 234 229 226 224 222 223 223 224
238 235 241 231 235 232 223 228 232 228 221 233 250 244 260 285 283 270 263 265 266 268 261 257 257 256 251 246 244 239 234 230 226 222 221 222 222 221
243 239 240 232 232 230 228 228 224 218 215 226 240 247 256 282 274 272 279 264 260 274 276 266 263 260 258 252 246 239 232 226 221 217 216 214 213 213
253 247 244 231 228 224 228 223 211 207 207 220 238 235 241 257 254 248 257 267 250 242 265 271 273 276 273 263 250 240 227 222 217 211 211 209 206 207
255 259 253 241 238 234 232 218 204 204 209 209 224 242 249 238 235 237 240 264 273 247 245 266 251 267 275 263 262 244 229 220 215 208 204 202 201 201
249 258 263 262 248 248 249 232 217 208 200 196 210 232 241 236 226 232 231 239 250 254 227 262 260 261 273 270 248 235 225 216 211 204 201 202 202 203
253 250 249 262 257 233 223 236 248 243 219 207 213 228 238 236 225 225 228 235 262 248 207 250 266 265 283 275 242 221 217 207 201 198 202 206 207 207
271 265 252 249 254 217 202 219 246 262 244 197 204 233 244 242 215 206 209 214 249 246 213 227 258 274 279 272 267 220 210 210 208 206 206 206 207 209
290 294 277 253 238 200 207 212 228 247 259 283 287 297 287 272 213 213 214 217 224 235 206 202 219 228 273 270 279 243 222 230 225 216 212 209 202 199
262 294 297 264 218 201 203 216 227 230 228 226 253 281 288 289 261 245 230 221 218 230 204 190 210 212 229 260 268 247 230 233 227 225 221 214 204 195
228 264 282 274 228 212 212 230 219 201 194 205 251 276 281 279 273 264 255 243 233 231 212 191 205 208 217 244 263 256 245 229 219 227 229 221 215 213
229 241 297 322 334 0 328 249 203 185 186 218 248 260 262 261 269 269 274 272 256 253 214 210 213 214 215 229 240 240 256 250 224 228 232 225 220 213
138 67 50 42 41 43 36 39 329 219 214 233 255 273 289 286 280 271 254 269 267 281 281 250 227 214 226 237 228 237 237 230 230 240 236 232 225 221
134 86 55 37 28 12 10 20 11 30 290 286 279 282 294 303 296 288 268 256 251 267 283 300 294 262 243 232 236 239 241 250 241 229 228 236 237 230
114 93 59 30 317 297 296 307 307 296 286 281 276 268 275 291 300 297 275 253 256 260 263 267 260 308 309 271 233 238 242 248 253 237 231 241 247 241
110 124 241 269 288 293 288 285 285 289 289 283 273 270 271 284 289 282 272 268 270 268 262 253 236 226 258 278 271 227 240 256 251 242 242 249 252 249
148 228 266 275 283 289 285 283 286 292 289 284 278 283 288 287 292 287 269 263 266 268 268 259 240 236 242 253 260 266 239 238 243 246 251 261 268 257
225 254 267 270 274 273 271 272 275 281 282 275 282 289 289 290 291 293 288 272 265 268 266 267 266 254 252 251 262 275 268 242 239 245 241 251 266 262
241 256 269 272 273 279 281 276 277 286 292 288 284 280 282 281 289 295 295 295 291 284 282 288 289 263 248 251 263 271 279 284 269 254 232 231 242 242
245 257 271 279 281 283 282 276 274 284 287 287 288 280 277 278 286 290 291 294 305 310 303 297 307 302 280 261 263 276 285 292 291 285 280 275 254 254
Height
1541 1541 1541 1541 1542 1542 1543 1543 1544 1542 1541 1541 1542 1542 1542 1541 1541 1541 1541 1541 1541 1541 1542 1542 1542 1542 1542 1542 1542 1543 1543 1544 1544 1545 1546 1547 1547 1548
1538 1538 1538 1538 1538 1539 1539 1540 1540 1540 1539 1538 1539 1539 1539 1538 1538 1537 1537 1537 1537 1537 1538 1538 1538 1538 1538 1538 1538 1539 1539 1539 1540 1541 1541 1542 1543 1544
1535 1535 1535 1535 1535 1535 1535 1536 1536 1536 1535 1535 1535 1535 1535 1535 1534 1534 1534 1534 1534 1534 1534 1534 1534 1534 1534 1534 1534 1534 1534 1535 1535 1536 1536 1537 1538 1539
1532 1532 1532 1532 1532 1532 1532 1532 1532 1533 1533 1532 1532 1532 1532 1531 1531 1531 1531 1530 1530 1530 1530 1530 1530 1530 1530 1530 1530 1530 1530 1530 1531 1531 1532 1533 1534 1534
1529 1528 1528 1529 1529 1529 1528 1528 1529 1529 1529 1529 1528 1528 1528 1528 1528 1527 1527 1527 1527 1527 1526 1526 1526 1526 1526 1526 1526 1526 1526 1526 1527 1527 1528 1528 1529 1530
1525 1525 1525 1525 1525 1525 1525 1525 1525 1525 1525 1525 1525 1524 1524 1524 1524 1523 1523 1523 1523 1523 1522 1522 1522 1522 1522 1522 1522 1522 1522 1522 1522 1522 1523 1523 1524 1525
1521 1521 1521 1521 1521 1521 1520 1520 1521 1520 1521 1521 1521 1521 1520 1520 1520 1520 1519 1519 1519 1519 1519 1518 1518 1517 1517 1517 1517 1517 1517 1517 1518 1518 1518 1519 1519 1520
1517 1517 1517 1517 1517 1517 1516 1516 1517 1517 1516 1517 1517 1517 1517 1517 1517 1516 1516 1516 1515 1516 1515 1514 1514 1513 1513 1513 1513 1513 1513 1513 1513 1514 1514 1514 1515 1515
1513 1513 1513 1513 1513 1512 1512 1512 1512 1512 1513 1513 1512 1513 1513 1513 1513 1513 1512 1512 1512 1512 1512 1510 1510 1509 1509 1509 1509 1509 1509 1509 1509 1510 1510 1510 1511 1511
1509 1509 1508 1508 1508 1508 1508 1507 1507 1507 1508 1508 1508 1508 1509 1509 1509 1509 1509 1509 1508 1508 1508 1507 1506 1506 1506 1505 1505 1505 1505 1505 1506 1506 1506 1507 1507 1507
1505 1505 1504 1504 1504 1504 1503 1502 1503 1503 1504 1504 1504 1504 1504 1505 1505 1505 1505 1505 1504 1504 1504 1503 1502 1502 1502 1502 1502 1502 1502 1502 1502 1502 1503 1503 1503 1503
1501 1501 1500 1500 1499 1499 1498 1498 1497 1498 1499 1499 1499 1500 1500 1500 1500 1500 1500 1500 1500 1499 1499 1500 1499 1499 1498 1498 1498 1498 1498 1498 1498 1499 1499 1499 1499 1499
1497 1497 1496 1496 1495 1495 1494 1494 1494 1494 1494 1495 1495 1495 1495 1495 1495 1496 1496 1496 1495 1495 1496 1496 1495 1495 1495 1494 1494 1494 1494 1494 1495 1495 1495 1495 1495 1495
1493 1493 1493 1492 1491 1491 1490 1490 1490 1490 1490 1491 1490 1490 1490 1490 1490 1491 1491 1491 1491 1491 1491 1491 1491 1491 1491 1490 1490 1490 1491 1491 1491 1490 1491 1491 1492 1492
1490 1490 1489 1489 1488 1488 1487 1487 1487 1487 1486 1487 1486 1486 1486 1486 1486 1486 1486 1486 1487 1486 1486 1486 1487 1487 1487 1486 1486 1486 1486 1486 1486 1486 1487 1487 1487 1487
1488 1487 1487 1486 1486 1485 1485 1485 1484 1484 1483 1483 1483 1483 1482 1482 1481 1481 1481 1481 1481 1481 1482 1482 1482 1483 1482 1482 1482 1482 1482 1482 1482 1482 1482 1482 1483 1483
1484 1484 1484 1483 1483 1483 1483 1482 1482 1481 1480 1480 1479 1479 1478 1478 1477 1477 1476 1476 1477 1476 1476 1477 1478 1478 1478 1478 1478 1478 1478 1477 1477 1477 1477 1477 1477 1478
1482 1481 1481 1481 1481 1481 1480 1479 1479 1478 1478 1477 1476 1476 1475 1474 1473 1473 1473 1473 1473 1472 1472 1472 1473 1473 1473 1473 1474 1473 1473 1473 1473 1473 1473 1472 1472 1473
1480 1480 1479 1479 1479 1478 1477 1476 1476 1475 1475 1474 1473 1473 1472 1471 1470 1469 1469 1469 1469 1468 1468 1468 1468 1468 1468 1468 1468 1470 1469 1469 1468 1468 1468 1467 1467 1467
1478 1478 1477 1477 1476 1475 1475 1474 1473 1472 1472 1471 1470 1469 1469 1468 1467 1466 1466 1465 1465 1465 1465 1465 1465 1464 1464 1464 1464 1464 1465 1464 1464 1463 1463 1463 1463 1464
1476 1476 1475 1474 1474 1473 1472 1471 1470 1469 1468 1468 1467 1466 1466 1465 1464 1464 1463 1462 1462 1461 1461 1461 1461 1461 1461 1461 1460 1459 1459 1460 1460 1459 1458 1458 1458 1458
1474 1474 1473 1472 1471 1470 1469 1468 1467 1466 1465 1464 1464 1463 1463 1462 1461 1461 1460 1459 1458 1458 1457 1457 1457 1457 1456 1456 1455 1454 1454 1454 1454 1454 1455 1454 1453 1452
1472 1471 1470 1469 1469 1468 1466 1465 1464 1462 1462 1461 1460 1460 1459 1459 1458 1457 1457 1456 1454 1454 1453 1453 1452 1452 1451 1451 1451 1450 1450 1449 1449 1449 1449 1449 1449 1449